| time (UTC) | temp C | wind direction | speed KPH | gust KPH | rain 1hr cm | rain 24hr cm | rain mn cm | humidity % | barometer mb |
| 20260503044611 | 8 | 273 | 6.4 | 14.5 | 0.00 | 0.03 | 0.03 | 52 | 1013.1 |
| 20260503043058 | 8 | 259 | 8.0 | 12.9 | 0.00 | 0.03 | 0.03 | 51 | 1013.2 |
| 20260503041610 | 8 | 260 | 6.4 | 11.3 | 0.00 | 0.03 | 0.03 | 52 | 1013.3 |
| 20260503040057 | 8 | 232 | 4.8 | 12.9 | 0.00 | 0.03 | 0.03 | 51 | 1013.3 |
| 20260503034555 | 8 | 200 | 6.4 | 12.9 | 0.00 | 0.03 | 0.03 | 51 | 1013.5 |
| 20260503033114 | 8 | 260 | 4.8 | 11.3 | 0.00 | 0.03 | 0.03 | 52 | 1013.5 |
| 20260503031553 | 9 | 259 | 6.4 | 17.7 | 0.00 | 0.03 | 0.03 | 51 | 1013.6 |
| 20260503030100 | 9 | 243 | 4.8 | 11.3 | 0.00 | 0.03 | 0.03 | 51 | 1013.8 |
| 20260503024601 | 10 | 236 | 4.8 | 8.0 | 0.00 | 0.03 | 0.03 | 51 | 1013.9 |
| 20260503023056 | 10 | 252 | 4.8 | 9.7 | 0.00 | 0.03 | 0.03 | 49 | 1013.9 |
| 20260503021557 | 10 | 243 | 4.8 | 8.0 | 0.00 | 0.03 | 0.03 | 50 | 1013.9 |
| 20260503020056 | 10 | 237 | 3.2 | 9.7 | 0.00 | 0.03 | 0.03 | 47 | 1013.7 |
| 20260503014552 | 10 | 232 | 3.2 | 6.4 | 0.00 | 0.03 | 0.03 | 47 | 1013.6 |
| 20260503013049 | 11 | 228 | 4.8 | 6.4 | 0.00 | 0.03 | 0.03 | 45 | 1013.5 |
| 20260503011601 | 11 | 248 | 3.2 | 6.4 | 0.00 | 0.03 | 0.03 | 44 | 1013.5 |
| 20260503010107 | 11 | 238 | 3.2 | 4.8 | 0.00 | 0.03 | 0.03 | 41 | 1013.5 |
| 20260503004552 | 12 | 248 | 3.2 | 6.4 | 0.00 | 0.03 | 0.03 | 40 | 1013.6 |
| 20260503003106 | 12 | 235 | 3.2 | 6.4 | 0.00 | 0.03 | 0.03 | 39 | 1013.5 |
| 20260503001550 | 12 | 259 | 4.8 | 9.7 | 0.00 | 0.03 | 0.03 | 37 | 1013.6 |
| 20260503000055 | 13 | 256 | 4.8 | 14.5 | 0.00 | 0.03 | 0.03 | 36 | 1013.8 |
| 20260502234555 | 13 | 274 | 6.4 | 12.9 | 0.00 | 0.03 | 0.03 | 35 | 1013.9 |
| 20260502233051 | 13 | 284 | 9.7 | 19.3 | 0.00 | 0.03 | 0.03 | 34 | 1014.0 |
| 20260502231556 | 13 | 259 | 4.8 | 14.5 | 0.00 | 0.03 | 0.03 | 35 | 1014.2 |
| 20260502230051 | 13 | 274 | 4.8 | 14.5 | 0.00 | 0.03 | 0.03 | 35 | 1014.3 |
| 20260502224556 | 13 | 285 | 3.2 | 16.1 | 0.00 | 0.03 | 0.03 | 34 | 1014.4 |
| 20260502223049 | 13 | 277 | 8.0 | 17.7 | 0.00 | 0.03 | 0.03 | 33 | 1014.5 |
| 20260502221552 | 13 | 342 | 8.0 | 17.7 | 0.00 | 0.03 | 0.03 | 32 | 1014.6 |
| 20260502220133 | 13 | 336 | 8.0 | 20.9 | 0.00 | 0.03 | 0.03 | 33 | 1014.7 |
| 20260502214557 | 13 | 288 | 11.3 | 25.7 | 0.00 | 0.03 | 0.03 | 32 | 1014.7 |
| 20260502213103 | 13 | 249 | 9.7 | 20.9 | 0.00 | 0.03 | 0.03 | 33 | 1014.8 |
| 20260502211559 | 13 | 283 | 8.0 | 14.5 | 0.00 | 0.03 | 0.03 | 35 | 1014.9 |
| 20260502204559 | 12 | 236 | 9.7 | 20.9 | 0.00 | 0.03 | 0.03 | 33 | 1015.3 |
| 20260502203112 | 13 | 277 | 1.6 | 8.0 | 0.00 | 0.03 | 0.03 | 35 | 1015.4 |
| 20260502201554 | 13 | 218 | 9.7 | 16.1 | 0.00 | 0.03 | 0.03 | 32 | 1015.5 |
| 20260502200055 | 12 | 295 | 8.0 | 22.5 | 0.00 | 0.03 | 0.03 | 35 | 1015.9 |
| 20260502194556 | 12 | 273 | 3.2 | 11.3 | 0.00 | 0.03 | 0.03 | 35 | 1016.1 |
| 20260502193054 | 12 | 276 | 4.8 | 16.1 | 0.00 | 0.03 | 0.03 | 34 | 1016.2 |
| 20260502191616 | 12 | 101 | 6.4 | 16.1 | 0.00 | 0.03 | 0.03 | 34 | 1016.4 |
| 20260502190106 | 12 | 256 | 1.6 | 9.7 | 0.00 | 0.03 | 0.03 | 34 | 1016.6 |
| 20260502184554 | 12 | 117 | 1.6 | 12.9 | 0.00 | 0.03 | 0.03 | 36 | 1016.8 |
| 20260502183059 | 12 | 257 | 6.4 | 16.1 | 0.00 | 0.03 | 0.03 | 36 | 1017.1 |
| 20260502181557 | 12 | 211 | 4.8 | 20.9 | 0.00 | 0.03 | 0.03 | 36 | 1017.1 |
| 20260502163107 | 11 | 301 | 4.8 | 9.7 | 0.00 | 0.03 | 0.03 | 40 | 1018.1 |
| 20260502161558 | 11 | 245 | 1.6 | 11.3 | 0.00 | 0.03 | 0.03 | 43 | 1018.2 |
| 20260502160104 | 10 | 305 | 1.6 | 14.5 | 0.00 | 0.03 | 0.03 | 42 | 1018.3 |
| 20260502151555 | 8 | 293 | 4.8 | 14.5 | 0.00 | 0.03 | 0.03 | 54 | 1018.5 |
| 20260502130105 | 3 | 271 | 1.6 | 4.8 | 0.00 | 0.00 | 0.00 | 86 | 1019.0 |
| 20260502123104 | 2 | 269 | 0.0 | 3.2 | 0.00 | 0.00 | 0.00 | 88 | 1018.9 |
| 20260502121558 | 1 | 0 | 0.0 | 1.6 | 0.00 | 0.00 | 0.00 | 90 | 1018.9 |
| 20260502114557 | 0 | 274 | 1.6 | 3.2 | 0.00 | 0.00 | 0.00 | 92 | 1018.5 |
| 20260502113057 | 0 | 263 | 0.0 | 1.6 | 0.00 | 0.00 | 0.00 | 93 | 1018.6 |
| 20260502111555 | -1 | 0 | 0.0 | 1.6 | 0.00 | 0.00 | 0.00 | 94 | 1018.5 |
| 20260502110055 | -2 | 0 | 0.0 | 0.0 | 0.00 | 0.00 | 0.00 | 94 | 1018.5 |
| 20260502104555 | -2 | 0 | 0.0 | 0.0 | 0.00 | 0.00 | 0.00 | 94 | 1018.5 |
| 20260502103051 | -2 | 0 | 0.0 | 0.0 | 0.00 | 0.00 | 0.00 | 94 | 1018.4 |
| 20260502101554 | -2 | 0 | 0.0 | 0.0 | 0.00 | 0.00 | 0.00 | 94 | 1018.4 |
| 20260502070100 | 0 | 0 | 0.0 | 0.0 | 0.00 | 0.00 | 0.00 | 94 | 1018.3 |
| 20260502064556 | 0 | 0 | 0.0 | 0.0 | 0.00 | 0.00 | 0.00 | 94 | 1018.3 |
| 20260502063057 | 0 | 0 | 0.0 | 0.0 | 0.00 | 0.00 | 0.00 | 93 | 1018.4 |
| 20260502061554 | 0 | 0 | 0.0 | 0.0 | 0.00 | 0.00 | 0.00 | 94 | 1018.5 |
| 20260502060100 | 0 | 0 | 0.0 | 1.6 | 0.00 | 0.00 | 0.00 | 93 | 1018.6 |
| 20260502054557 | 0 | 0 | 0.0 | 1.6 | 0.00 | 0.00 | 0.00 | 93 | 1018.4 |
| 20260502053053 | 0 | 281 | 1.6 | 1.6 | 0.00 | 0.00 | 0.00 | 93 | 1018.4 |
| 20260502051601 | 0 | 0 | 0.0 | 1.6 | 0.00 | 0.00 | 0.00 | 93 | 1018.5 |
| 20260502050055 | 0 | 0 | 0.0 | 0.0 | 0.00 | 0.00 | 0.00 | 93 | 1018.6 |